User: anonymous   Login
Location: Theydon Bois
(51.6750°N, 0.1050°E)
Time: 05:01:43
(UTC+01:00)
Language:

YAOGAN 1 - Orbit

View from above orbital plane
View from above orbital plane
View from above satellite
View from above satellite

Ground track
Ground track

The orbit data is extracted from the following two-line orbital elements,

1 29092U 06015A   17289.45859299 +.00000121 +00000-0 +21631-4 0  9993
2 29092 098.0017 300.9429 0001453 091.2826 268.8554 14.82847158620236
Epoch (UTC): 16 October 2017 11:00:22
Eccentricity: 0.0001453
inclination: 98.0017°
perigee height: 619 km
apogee height: 621 km
right ascension of ascending node: 300.9429°
argument of perigee: 91.2826°
revolutions per day: 14.82847158
mean anomaly at epoch: 268.8554°
orbit number at epoch: 62023

The dashed part of the orbit path shows where the satellite is in the earth's shadow,  

DLR